Regional Weather Roundup
Issued by NWS

Home | Current Version | Previous Version | Text Only | Print | Product List | Glossary On
Versions: 1 2 3 4 5 6 7 8 9 10 11 12 13 14 15 16 17 18 19 20 21 22 23 24 25 26 27 28 29 30 31 32 33 34 35 36 37 38 39 40 41 42 43 44 45 46 47 48 49 50
000
ASUS46 KSEW 261710
RWRWA

WASHINGTON REGIONAL WEATHER ROUNDUP
NATIONAL WEATHER SERVICE SEATTLE WA
1000 AM PDT SUN MAR 26 2017

NOTE:"FAIR" INDICATES FEW OR NO CLOUDS BELOW 12,000 FEET WITH NO
SIGNIFICANT WEATHER AND/OR OBSTRUCTIONS TO VISIBILITY.

WAZ507-509-555>559-261800-
SEATTLE, TACOMA, EVERETT, AND VICINITY

CITY           SKY/WX    TMP DP  RH WIND       PRES   REMARKS
EVERETT        LGT RAIN  44  40  85 S13       29.83F FOG
BOEING FIELD   LGT RAIN  45  44  97 CALM      29.86R
RENTON         LGT RAIN  45  42  89 CALM      29.85S
SEATAC AIRPORT LGT RAIN  44  41  89 S5        29.85R
JBLM-MCCHORD   LGT RAIN  44  44 100 E5        29.83F
PUYALLUP       DRIZZLE   43  43 100 CALM      29.84R
BREMERTON      CLOUDY    43  39  87 S6        29.86S
JBLM-FT LEWIS  LGT RAIN  45  45 100 CALM      29.82F
TACOMA NARROWS LGT RAIN  43  42  97 NE3       29.84F
$$

WAZ001-503-506-510-514-515-261800-
NORTH INTERIOR

CITY           SKY/WX    TMP DP  RH WIND       PRES   REMARKS
BELLINGHAM     LGT RAIN  43  41  93 NE6       29.83R
FRIDAY HARBOR  LGT RAIN  46  40  79 E15G24    29.80F
EASTSOUND      LGT RAIN  45  39  81 SE7       29.79F
PORT ANGELES   CLOUDY    43  39  86 SE3       29.73F
EDIZ HOOK      CLOUDY    44  38  81 CALM      29.73F
PORT TOWNSEND  FAIR      43  41  93 SE13G23   29.81S
NAS WHIDBEY    RAIN      46  39  76 SE15      29.85S
ARLINGTON      CLOUDY    45  34  65 SE8       29.86S
BURLINGTON     PTSUNNY   45  41  87 SE9       29.84R FOG
$$

WAZ020-022-039-040-504-511-512-261800-
SOUTHWEST INTERIOR

CITY           SKY/WX    TMP DP  RH WIND       PRES   REMARKS
SHELTON        LGT RAIN  42  40  92 N6        29.80F FOG
OLYMPIA        LGT RAIN  44  42  93 S7        29.82F
CHEHALIS       DRIZZLE   45  43  93 S9        29.81F
KELSO          LGT RAIN  45  40  82 SE14G23   29.83F
VANCOUVER      LGT RAIN  45  44  97 E8        29.86F
SCAPPOOSE, OR  LGT RAIN  45  42  89 SE9       29.85F
PORTLAND, OR   LGT RAIN  44  44 100 E12       29.86F
$$

WAZ021-516-517-261800-
WASHINGTON COAST

CITY           SKY/WX    TMP DP  RH WIND       PRES   REMARKS
FORKS          LGT RAIN  42  39  89 SE9G20    29.70F
HOQUIAM        LGT RAIN  44  43  96 NE10      29.75F FOG
ASTORIA, OR    LGT RAIN  44  40  85 E9        29.74F FOG
$$

WAZ019-023-024-040-567>569-261800-
CASCADE MOUNTAINS AND COLUMBIA GORGE

CITY           SKY/WX    TMP DP  RH WIND       PRES   REMARKS
STAMPEDE PASS  NOT AVBL
TROUTDALE, OR  LGT RAIN  45  42  89 E9        29.87F
THE DALLES, OR LGT RAIN  44  41  89 CALM      29.91S
$$

WAZ026-027-041>044-520-521-261800-
EAST SLOPES

CITY           SKY/WX    TMP DP  RH WIND       PRES   REMARKS
OMAK           CLOUDY    41  26  55 CALM      29.91S
WENATCHEE      CLOUDY    39  31  72 CALM      29.89F
ELLENSBURG     LGT RAIN  38  33  82 N3        29.87S
YAKIMA         LGT RAIN  43  34  70 W3        29.89S
SUNNYSIDE ARPT CLOUDY    42  36  78 CALM      29.89S
$$

WAZ028-034-035-261800-
COLUMBIA BASIN

CITY           SKY/WX    TMP DP  RH WIND       PRES   REMARKS
EPHRATA        CLOUDY    41  31  67 N9        29.88F
MOSES LAKE     CLOUDY    42  35  76 N6        29.89F
PASCO          CLOUDY    46  38  73 NW3       29.89F
HERMISTON, OR  CLOUDY    45  40  82 CALM      29.87S
$$

WAZ036>038-261800-
NORTHEAST WASHINGTON

CITY           SKY/WX    TMP DP  RH WIND       PRES   REMARKS
SPOKANE GEIGER PTSUNNY   41  33  73 NE8       29.88F
SPOKANE FELTS  PTSUNNY   44  36  73 CALM      29.90F
FAIRCHILD AFB  CLOUDY    41  35  81 E10       29.87F
COEURDALENE,ID SUNNY     43  35  73 NE8       29.91F
DEER PARK      PTSUNNY   45  33  63 N9        29.91F
$$

WAZ029>033-261800-
SOUTHEAST WASHINGTON

CITY           SKY/WX    TMP DP  RH WIND       PRES   REMARKS
PULLMAN        PTSUNNY   45  35  68 E17       29.88F
LEWISTON, ID   PTSUNNY   46  37  71 E3        29.90F
WALLA WALLA    CLOUDY    47  40  76 CALM      29.85F
PENDLETON, OR  CLOUDY    47  38  71 CALM      29.84F
$$



USA.gov is the U.S. government's official web portal to all federal, state and local government web resources and services.